This is the latest recevied weather packets stored in our database for station/object WB3EGK. If no packets are shown the sender has not sent any weather packets the latest 10 day(s).
| Time | Temp. | Humidity | Pressure | Rain* | Wind** | Luminosity | Snow |
|---|---|---|---|---|---|---|---|
| 1777731009 | 2.22° C | 1% | 1013.5 hPa | 0 mm | - | 190 W/m² | - |
| 1777730708 | 2.22° C | 1% | 1013.5 hPa | 0 mm | - | 225 W/m² | - |
| 1777730403 | 2.22° C | 1% | 1013.5 hPa | 0 mm | - | 237 W/m² | - |
| 1777730099 | 2.22° C | 1% | 1013.4 hPa | 0 mm | - | 228 W/m² | - |
| 1777729796 | 1.67° C | 1% | 1013.6 hPa | 0 mm | - | 167 W/m² | - |
| 1777729493 | 1.11° C | 1% | 1013.6 hPa | 0 mm | - | 129 W/m² | - |
| 1777729190 | 1.67° C | 1% | 1013.5 hPa | 0 mm | - | 134 W/m² | - |
| 1777728886 | 1.11° C | 1% | 1013.5 hPa | 0 mm | - | 143 W/m² | - |
| 1777728583 | 1.11° C | 1% | 1013.8 hPa | 0 mm | - | 97 W/m² | - |
| 1777728280 | 1.11° C | 1% | 1013.6 hPa | 0 mm | - | 108 W/m² | - |
| 1777727978 | 1.11° C | 1% | 1013.6 hPa | 0 mm | - | 104 W/m² | - |
| 1777727674 | 0.56° C | 1% | 1013.5 hPa | 1.78 mm | - | 84 W/m² | - |
| 1777727371 | 0.56° C | 1% | 1013.6 hPa | 1.78 mm | - | 69 W/m² | - |
| 1777727068 | 0.56° C | 1% | 1013.9 hPa | 0 mm | - | 61 W/m² | - |
| 1777726766 | 0.56° C | 1% | 1013.7 hPa | 0 mm | - | 58 W/m² | - |
| 1777726463 | 0.56° C | 1% | 1013.8 hPa | 0 mm | - | 48 W/m² | - |
| 1777726160 | 0.56° C | 1% | 1013.7 hPa | 0 mm | - | 41 W/m² | - |
| 1777725856 | 0.56° C | 1% | 1013.6 hPa | 0 mm | - | 46 W/m² | - |
| 1777725554 | 0.56° C | 1% | 1013.5 hPa | 0 mm | - | 45 W/m² | - |
| 1777725251 | 1.11° C | 1% | 1013.5 hPa | 0 mm | - | 48 W/m² | - |
| 1777724948 | 1.11° C | 1% | 1013.3 hPa | 0 mm | - | 43 W/m² | - |
| 1777724644 | 0.56° C | 1% | 1013.3 hPa | 0 mm | - | 49 W/m² | - |
| 1777724343 | 0.56° C | 1% | 1013.4 hPa | 0 mm | - | 48 W/m² | - |
| 1777724039 | 0.56° C | 1% | 1013.4 hPa | 1.27 mm | - | 52 W/m² | - |
| 1777723737 | 0.56° C | 1% | 1013.5 hPa | 1.27 mm | - | 52 W/m² | - |
* Rain latest hour (hover to see other rain measurements)
** Current wind speed in m/s (hover to see current wind gust speed)